TimeCST,TemperatureF,Dew PointF,Humidity,Sea Level PressureIn,VisibilityMPH,Wind Direction,Wind SpeedMPH,Gust SpeedMPH,PrecipitationIn,Events,Conditions,WindDirDegrees,DateUTC
12:51 AM,50.0,36.0,59,30.20,10.0,SW,9.2,-,0.00,Rain,Light Rain,230,2013-01-09 06:51:00
1:51 AM,48.9,37.9,66,30.22,10.0,SW,8.1,-,0.00,,Overcast,220,2013-01-09 07:51:00
2:51 AM,50.0,42.1,74,30.24,10.0,WSW,11.5,-,0.00,Rain,Light Rain,240,2013-01-09 08:51:00
3:51 AM,51.1,42.1,71,30.25,10.0,West,12.7,-,0.00,,Overcast,260,2013-01-09 09:51:00
4:51 AM,48.0,41.0,77,30.28,10.0,West,6.9,-,N/A,,Mostly Cloudy,280,2013-01-09 10:51:00
5:51 AM,45.0,39.9,82,30.30,10.0,West,5.8,-,N/A,,Scattered Clouds,280,2013-01-09 11:51:00
6:51 AM,43.0,37.9,82,30.34,10.0,WNW,4.6,-,N/A,,Mostly Cloudy,300,2013-01-09 12:51:00
7:51 AM,41.0,36.0,82,30.37,10.0,West,4.6,-,N/A,,Mostly Cloudy,280,2013-01-09 13:51:00
8:51 AM,48.0,37.9,68,30.38,10.0,WNW,6.9,-,N/A,,Mostly Cloudy,290,2013-01-09 14:51:00
9:51 AM,51.1,36.0,56,30.41,10.0,West,5.8,-,N/A,,Mostly Cloudy,280,2013-01-09 15:51:00
10:51 AM,54.0,34.0,47,30.42,10.0,NNW,4.6,-,N/A,,Mostly Cloudy,330,2013-01-09 16:51:00
11:51 AM,55.4,33.8,44,30.40,10.0,NNW,9.2,-,N/A,,Mostly Cloudy,340,2013-01-09 17:51:00
12:51 PM,55.9,34.0,44,30.40,10.0,NW,5.8,-,N/A,,Mostly Cloudy,320,2013-01-09 18:51:00
1:51 PM,57.9,33.1,39,30.40,10.0,NW,5.8,-,N/A,,Mostly Cloudy,310,2013-01-09 19:51:00
2:51 PM,55.9,30.9,39,30.41,10.0,NNW,12.7,-,N/A,,Mostly Cloudy,330,2013-01-09 20:51:00
3:51 PM,54.0,30.0,40,30.43,10.0,NNW,6.9,-,N/A,,Mostly Cloudy,330,2013-01-09 21:51:00
4:51 PM,50.0,28.9,44,30.43,10.0,North,3.5,-,N/A,,Overcast,350,2013-01-09 22:51:00
5:51 PM,46.9,30.0,52,30.46,10.0,Calm,Calm,-,N/A,,Overcast,0,2013-01-09 23:51:00
6:51 PM,48.0,30.9,52,30.48,10.0,NE,5.8,-,N/A,,Overcast,40,2013-01-10 00:51:00
7:51 PM,48.0,30.9,52,30.48,10.0,NE,9.2,-,N/A,,Overcast,40,2013-01-10 01:51:00
8:51 PM,45.0,30.0,56,30.48,10.0,ENE,6.9,-,N/A,,Overcast,60,2013-01-10 02:51:00
9:51 PM,39.9,30.0,68,30.49,10.0,East,5.8,-,N/A,,Overcast,100,2013-01-10 03:51:00
10:51 PM,44.1,32.0,63,30.48,10.0,East,8.1,-,N/A,,Overcast,90,2013-01-10 04:51:00
11:51 PM,42.1,30.9,65,30.47,10.0,SE,6.9,-,N/A,,Overcast,130,2013-01-10 05:51:00